Location: Antioch
(38.0049°N, 121.8058°W)
Time: 03:32:38
(UTC+00:00)

Cosmos 1354 Rocket - Pass Details

Date: 26 May 2026
Orbit: 761 x 778 km, 74.0° (Epoch: 9 June)

Event Time Altitude Azimuth Distance (km) Brightness Sun altitude
Rises 05:21:52 0° 330° (NNW) 3,230 8.8 -19.6°
Reaches altitude 10° 05:24:28 10° 320° (NW) 2,299 7.7 -20.0°
Maximum altitude 05:28:58 30° 260° (W) 1,333 5.5 -20.5°
Enters shadow 05:32:23 15° 207° (SSW) 1,944 5.8 -20.9°
